Miscellaneous Local Product
Issued by NWS North Platte, NE

Home | Current Version | Previous Version | Text Only | Print | Product List | Glossary On
Versions: 1 2 3 4 5 6 7 8 9 10 11 12 13 14 15 16 17 18 19 20 21 22 23 24 25 26 27 28 29 30 31 32 33 34 35 36 37 38 39 40 41 42 43 44 45 46 47 48 49 50
000
AXUS43 KLBF 261110
MISLBF


WESTERN AND NORTH CENTRAL NEBRASKA HOURLY WEATHER ROUNDUP
NATIONAL WEATHER SERVICE NORTH PLATTE NE
600 AM CDT TUE MAY 26 2015

***STATIONS NOT REPORTING VARIABLES SUCH AS SKY/WEATHER OR
PRESSURE ARE PROVIDED BY THE NEBRASKA DEPARTMENT OF
ROADS...RAWS...AND APRS NETWORKS...AND ARE NOT UNDER
NATIONAL WEATHER SERVICE QUALITY CONTROL***

...OBSERVATIONS IN AND NEAR THE EASTERN PANHANDLE OF NEBRASKA...

CITY           SKY/WX    TMP DP  RH WIND       PRES   REMARKS
PINE RIDGE     CLOUDY    52  49  89 NE5       29.96R
CHADRON        CLOUDY    54  53  97 N3        29.96R
ALLIANCE       CLOUDY    51  50  96 NW6       29.96R
SIDNEY         CLEAR     45  44  97 NW9       29.98R
WHITECLAY        N/A     51  49  95 CALM        N/A
BIG SPRINGS      N/A     51  50  96 CALM        N/A
$$

...OBSERVATIONS IN NORTH CENTRAL NEBRASKA...

CITY           SKY/WX    TMP DP  RH WIND       PRES   REMARKS
VALENTINE      MOCLDY    53  49  86 N9        29.92R
THEDFORD       CLOUDY    54  51  92 N7        29.91S
AINSWORTH      CLOUDY    51  50  96 N8        29.90S
O`NEILL        CLOUDY    55  54  95 N13       29.85R
ORD            CLOUDY    56  52  86 NW12      29.82S
BROKEN BOW     PTCLDY    54  51  90 N10       29.86R
BROWNLEE         N/A     55  50  85 E13         N/A
VALENTINE NWR    N/A     51  51  99 N8G15       N/A
SPRINGVIEW       N/A     51  49  92 CALM        N/A
HALSEY           N/A     52  52 100 NW6         N/A
BREWSTER         N/A     55  53  95 W8          N/A
ROSE             N/A     54  54 100 S7          N/A
NEWPORT          N/A     54  52  95 W7          N/A
SARGENT          N/A     53  51  93 CALM        N/A
COMSTOCK         N/A     59  58  96 S12         N/A
EWING            N/A     56  55  96 N6          N/A
$$

...OBSERVATIONS IN SOUTHWEST NEBRASKA AND FAR NORTHEAST COLORADO...

CITY           SKY/WX    TMP DP  RH WIND       PRES   REMARKS
WRAY           FAIR     N/A N/A N/A W5        29.95R
IMPERIAL       PTCLDY    50  48  93 W7        29.92S
OGALLALA       CLOUDY    53  52  96 CALM      29.93S
NORTH PLATTE   CLOUDY    54  52  93 NW10      29.91R
MCCOOK         MOCLDY    51  49  92 W7        29.89R
LEXINGTON      PTCLDY    55  54  95 NW12      29.85R
PAXTON           N/A     54  52  93 CALM        N/A
GOTHENBURG       N/A     56  51  84 NW7         N/A
CALLAWAY         N/A     54  53  95 N10         N/A
$$

...NORTH PLATTE AREA...

CITY           SKY/WX    TMP DP  RH WIND       PRES   REMARKS
AIRPORT        CLOUDY    54  52  93 NW10      29.91R
DOWNTOWN         N/A     54  51  90 N3          N/A
$$

...SOME WEATHER OBSERVATIONS FROM AROUND THE REGION...

CITY           SKY/WX    TMP DP  RH WIND       PRES   REMARKS
DENVER         PTCLDY    47  42  83 SW6       30.02R
LARAMIE        CLOUDY    40  38  93 SW5       30.06S
CHEYENNE       MOCLDY    43  37  79 W10       30.03R
SCOTTSBLUFF    CLOUDY    47  47 100 W3        29.98R
RAPID CITY     CLOUDY    50  49  96 NE3       29.96S
PIERRE         PTCLDY    50  50 100 N9        29.90R
WINNER         MOCLDY    52  49  89 NW8       29.90R
SIOUX FALLS    CLOUDY    54  52  93 NE7       29.81S
OMAHA          CLOUDY    61  59  93 SE8       29.75F
GRAND ISLAND   CLOUDY    57  54  89 NW10      29.78R
KANSAS CITY    LGT RAIN  60  59  96 S3        29.79R
WICHITA        MOCLDY    58  57  97 S6        29.87R
HAYS           PTCLDY    54  46  76 W7        29.86R
LIBERAL        CLEAR     54  46  76 CALM      29.94S
GOODLAND       CLEAR     45  44  97 NW7       29.95R
$$



USA.gov is the U.S. government's official web portal to all federal, state and local government web resources and services.